Simultaneous Nadir Overpasses (SNOs) Predictions

Prediction of SNOs between NPP and TERRA Satellite Orbit:

Table of predicted SNOs for the next 14.0 days since TLE Epoch: 12/31/2022
Index Date (NPP) Time (NPP) Lat,Lon (NPP) SZA (NPP ) Date (TERRA) Time (TERRA) Lat,Lon (TERRA) SZA (TERRA ) Distance(km) Time Diff (sec)
1 01/02/2023 05:11:15 -70.34, -81.62 86.77 01/02/2023 05:11:48 -70.34, -81.58 86.78 1.40 33
2 01/02/2023 06:01:59 70.22, 85.88 93.11 01/02/2023 06:01:12 70.22, 85.91 93.11 1.22 47
3 01/04/2023 18:05:13 -70.34, 84.90 87.01 01/04/2023 18:05:53 -70.36, 84.91 87.00 2.43 40
4 01/04/2023 18:55:57 70.22,-107.61 92.87 01/04/2023 18:55:17 70.24,-107.60 92.89 2.44 40
5 01/07/2023 06:59:11 -70.34,-108.59 87.30 01/07/2023 06:59:58 -70.36,-108.64 87.29 2.82 47
6 01/07/2023 07:49:55 70.23, 58.90 92.58 01/07/2023 07:49:22 70.24, 58.85 92.60 2.30 33
7 01/09/2023 19:53:10 -70.40, 57.83 87.57 01/09/2023 19:54:02 -70.39, 57.87 87.59 1.92 52
8 01/09/2023 20:43:54 70.29,-134.69 92.32 01/09/2023 20:43:26 70.27,-134.64 92.30 2.98 28
9 01/12/2023 08:47:07 -70.42,-135.68 87.93 01/12/2023 08:48:05 -70.40,-135.65 87.96 2.13 58
10 01/12/2023 09:37:50 70.26, 31.88 91.90 01/12/2023 09:37:29 70.28, 31.83 91.92 2.72 21



Historial Predications of SNOs between NPP and TERRA
